Location: Fluertsh�userhof
(48.7537°N, 10.3850°E)
Time: 06:31:17
(UTC+00:00)

Cosmos 1782 Rocket - Pass Details

Date: 18 September 2020
Orbit: 607 x 632 km, 82.5° (Epoch: 27 October)

Event Time Altitude Azimuth Distance (km) Brightness Sun altitude
Rises 18:42:46 0° 201° (SSW) 2,883 7.0 -13.5°
Reaches altitude 10° 18:45:01 10° 206° (SSW) 1,987 6.2 -13.9°
Maximum altitude 18:49:19 52° 283° (WNW) 779 4.5 -14.6°
Drops below altitude 10° 18:53:42 10° 1° (N) 2,017 6.4 -15.2°
Sets 18:56:01 0° 6° (N) 2,933 7.2 -15.6°
